Location: Stokes Fall Starparty
(41.2298°N, 74.7506°W)
Time: 13:04:09
(UTC-05:00)

Daily predictions for brighter satellites

Satellite Brightness Start Highest point End
(mag) Time Altitude Azimuth Time Altitude Azimuth Time Altitude Azimuth
Meteor 1-11 Rocket 3.9 18:07:16 10° S 18:13:02 68° E 18:18:57 10° NNE
CZ-3C R/B 4.1 18:09:12 10° SW 18:16:09 15° SSW 18:19:46 10° S
Okean 1-7 Rocket 3.7 18:20:06 10° N 18:24:32 54° E 18:28:53 10° SSE
Cosmos 1300 Rocket 4.1 18:28:23 10° SSW 18:32:46 66° W 18:37:13 10° N
Cosmos 2285 Rocket 4.1 18:27:06 10° NNW 18:33:27 57° ENE 18:39:43 10° SE
Cosmos 1238 Rocket 3.3 18:32:36 10° NNW 18:35:28 48° W 18:38:31 10° S
FengYun 1-2 T 4.4 18:34:34 10° SE 18:39:49 49° ENE 18:45:08 10° N
Hubble Space Telescope 3.1 18:39:38 10° SSW 18:41:44 14° S 18:43:50 10° SSE
Cosmos 2237 Rocket 2.9 18:37:28 10° N 18:42:39 35° ENE 18:47:49 10° ESE
Cosmos 1455 Rocket 4.1 18:39:25 10° SE 18:42:52 23° E 18:46:18 10° NE
Cosmos 2297 Rocket 3.2 18:39:47 10° SSE 18:44:15 25° ESE 18:48:44 10° NE
Cosmos 405 Rocket 3.3 18:43:32 10° N 18:47:21 38° ENE 18:51:04 10° SE
Cosmos 2333 4.3 18:42:38 10° NNW 18:48:24 85° WSW 18:54:11 10° SSE
COSMO-SKYMED 1 4.4 18:45:21 10° N 18:49:18 35° WNW 18:53:14 10° SW
ALOS 2.2 18:45:42 10° SSE 18:50:18 62° ENE 18:54:55 10° N
Cosmos 2219 Rocket 2.1 18:46:27 10° NNW 18:52:02 67° ENE 18:57:37 10° SSE
COSMOS 2428 3.1 18:46:42 10° NNW 18:52:22 69° WSW 18:58:01 10° SSE
H-2A R/B 3.2 18:49:18 10° SE 18:52:46 38° ENE 18:56:18 10° N
Cosmos 2360 Rocket 4.3 18:48:22 10° NW 18:53:15 30° WSW 18:58:07 10° SSW
CZ-2D R/B 3.9 18:54:44 14° SE 18:57:30 32° ENE 19:00:56 10° N
SJ-6B 3.1 18:55:18 10° S 18:59:14 69° WSW 19:03:07 10° NNW
Meteor 2-4 Rocket 4.1 18:54:19 10° NNW 18:59:44 64° W 19:05:02 10° S
USA 229 DEB 3.9 18:54:05 10° NW 19:01:14 80° WSW 19:08:29 10° SSE
USA 229 3.9 18:54:09 10° NW 19:01:20 81° WSW 19:08:35 10° SSE
Cosmos 2227 Rocket 2.4 18:59:28 10° S 19:04:52 49° ESE 19:10:19 10° NE
Cosmos 2219 4.1 19:00:19 10° SW 19:05:55 52° WNW 19:11:32 10° NNE
BREEZE-M DEB (TANK) 3.5 19:05:28 10° NW 19:08:44 77° NNE 19:15:06 18° ESE
Cosmos 468 Rocket 3.9 19:04:00 10° NNW 19:09:17 76° ENE 19:14:34 10° SSE
Resurs 01 Rocket 1.5 19:05:10 10° SSE 19:09:33 73° ENE 19:13:57 10° N
Cosmos 1610 Rocket 4.4 19:06:46 10° S 19:12:56 75° E 19:19:06 10° N
Cosmos 1441 Rocket 3.8 19:10:01 10° N 19:13:43 35° ENE 19:14:08 34° E
NOSS 3-1 (A) 4.3 19:06:30 10° NNW 19:13:49 51° NE 19:19:04 22° ESE
Resurs 1-3 3.5 19:10:47 10° SSE 19:15:08 70° ENE 19:19:31 10° N
Cosmos 1025 Rocket 3.9 19:10:53 10° NNW 19:15:10 54° W 19:19:27 10° S
Spot 2 Rocket 3.4 19:10:54 10° SSE 19:15:56 81° ENE 19:21:02 10° NNW
ATLAS 2AS CENTAUR R/B 4.3 19:12:17 10° NNW 19:18:36 24° NNE 19:21:49 19° ENE
Meteor 1-12 Rocket 4.4 19:13:40 10° S 19:19:26 54° E 19:25:10 10° NNE
SL-16 R/B 3.0 19:14:58 10° N 19:20:00 31° ENE 19:21:06 28° ENE
Cosmos 1892 Rocket 3.4 19:16:43 10° N 19:21:06 88° E 19:25:29 10° S
GEOS 3 Rocket 3.8 19:20:20 20° NE 19:23:46 50° ESE 19:28:52 10° SSW
Atlas Centaur 2 3.8 19:22:21 10° SW 19:28:16 25° SSE 19:30:22 21° SE
GPS 2-04 Rocket1 3.9 19:24:34 10° WSW 19:28:28 35° S 19:29:35 30° SSE
Meteor 2-13 Rocket 4.5 19:24:17 10° S 19:30:20 82° W 19:36:29 10° N
NOSS 3-1 (C) 4.0 19:23:04 10° NNW 19:30:42 77° NE 19:36:32 22° SE
Abrixas rocket 3.8 19:29:02 10° WNW 19:31:59 27° NNW 19:32:36 25° N
OTV 4 1.6 19:29:29 10° WSW 19:31:45 36° SSW 19:31:45 36° SSW
Envisat 3.4 19:32:28 38° ENE 19:32:38 38° ENE 19:37:19 10° N
Cosmos 1814 Rocket 3.9 19:27:28 10° NNW 19:32:39 89° WSW 19:36:39 17° SSE
Okean 2 4.4 19:28:51 10° NNW 19:32:52 48° W 19:36:53 10° SSW
FENGYUN 3A 4.3 19:27:45 10° S 19:33:03 56° W 19:38:24 10° NNW
SL-8 Rocket 4.3 19:38:21 36° ESE 19:39:44 41° E 19:45:36 10° NNE
USA 186 4.3 19:45:05 12° N 19:45:05 12° N 19:45:20 10° N
Cosmos 1980 3.8 19:36:57 10° NNW 19:42:36 75° WSW 19:46:48 19° SSE
Cosmos 1544 Rocket 4.1 19:38:56 10° SSW 19:43:11 58° W 19:47:28 10° N
NOSS 0 Rocket 4.4 19:37:35 10° NNW 19:43:39 61° WSW 19:49:39 10° S
Cosmos 2333 Rocket 2.8 19:40:24 10° NNW 19:46:02 56° WSW 19:51:38 10° S
Helios 1B rocket 2.3 19:42:21 10° NNE 19:46:32 87° ESE 19:50:41 10° SSW
USA 32 3.9 19:43:54 10° N 19:49:09 75° E 19:51:05 39° SSE
Helios 1A 3.2 19:52:56 46° SSW 19:54:02 68° WSW 19:58:11 10° NNW
Cosmos 1975 3.3 19:51:50 10° SSW 19:55:49 60° W 19:59:51 10° N
Cosmos 1500 3.7 19:54:17 10° SSW 19:58:01 57° W 20:01:45 10° N
Cosmos 1602 Rocket 4.0 19:54:30 10° N 19:57:52 50° N 19:57:52 50° N
Nadezhda 3 Rocket 4.4 19:56:08 10° NNW 20:02:14 63° W 20:08:20 10° S
Cosmos 1626 Rocket 3.9 19:58:31 10° N 20:02:06 57° N 20:02:06 57° N
CZ-3 Stage 3 4.4 19:34:47 10° SW 20:04:49 35° S 20:07:53 30° SSE
Cosmos 2082 4.2 20:03:12 10° SW 20:08:49 58° WNW 20:14:28 10° NNE
Cosmos 841 Rocket 3.5 20:04:56 10° NNW 20:10:03 72° WSW 20:10:38 65° SSW
ATLAS CENTAUR R/B 4.2 20:12:33 10° WSW 20:13:25 14° W 20:13:25 14° W
Cosmos 540 Rocket 4.5 20:12:08 10° NNW 20:15:14 35° N 20:15:14 35° N
Cosmos 2341 Rocket 4.4 20:11:01 10° SSW 20:17:18 63° W 20:23:40 10° N
Cosmos 1763 Rocket 4.3 20:13:49 10° NNW 20:18:46 48° WSW 20:20:13 37° SSW
Cosmos 2237 Rocket 3.6 20:21:33 10° NW 20:26:40 35° WSW 20:29:46 20° SSW
Cosmos 2297 Rocket 3.1 20:22:32 10° SW 20:27:57 47° WNW 20:33:25 10° NNE
Cosmos 371 Rocket 4.4 20:31:56 10° NNW 20:35:47 42° WNW 20:35:47 42° WNW
Cosmos 2227 Rocket 4.2 20:44:31 10° WSW 20:49:11 26° NW 20:53:52 10° N
SL-16 R/B 3.5 20:58:55 10° NW 21:03:01 36° WNW 21:03:01 36° WNW
ATLAS 2AS CENTAUR R/B 3.4 21:03:01 10° NNW 21:09:17 55° N 21:09:17 55° N
